Location: Atbuku
(36.4936°N, 30.4362°E)
Time: 04:14:32
(UTC+00:00)

Cosmos 2058 Rocket - Pass Details

Date: 11 December 2025
Orbit: 603 x 633 km, 82.5° (Epoch: 13 January)

Event Time Altitude Azimuth Distance (km) Brightness Sun altitude
Rises 16:02:47 0° 180° (S) 2,905 6.7 -15.6°
Reaches altitude 10° 16:05:00 10° 178° (S) 2,004 5.9 -16.0°
Maximum altitude 16:09:26 72° 95° (E) 669 3.0 -16.9°
Enters shadow 16:13:47 11° 12° (NNE) 1,973 5.4 -17.7°
